Alyeska Resort
Hourly Weather - Mid Mountian Site
ALY_MID_HR 10/24/2014
CLICK TO VIEW GRAPH!!

        DATE  TIME   Air   H2o   H2o   New  Snow  BATT   Rel
                    Temp  Inch Since  Snow Depth  Volt  Hum%
                      F   1HR  0600   1HR         AVG   AVG

  10/24/2014 23:00    27  0.00  0.06   9.4  0.02 13.50    96
  10/24/2014 22:00    28  0.00  0.06   9.4  0.20 13.50    94
  10/24/2014 21:00    28  0.01  0.06   9.2  1.50 13.50    92
  10/24/2014 20:00    28  0.00  0.05   8.9  0.67 13.49    94
  10/24/2014 19:00    28  0.00  0.05   9.3  0.71 13.48    95
  10/24/2014 18:00    29  0.01  0.05   9.4  1.53 13.47    92
  10/24/2014 17:00    30  0.01  0.04   9.3  0.20 13.46    91
  10/24/2014 16:00    31  0.01  0.03   8.9  0.88 13.47    91
  10/24/2014 15:00    30  0.01  0.02   8.9  1.24 13.47    89
  10/24/2014 14:00    31  0.01  0.01   8.6  1.35 13.48    82
  10/24/2014 13:00    31  0.00  0.00   8.6  1.87 13.48    76
  10/24/2014 12:00    31  0.00  0.00   8.6  1.81 13.49    73
  10/24/2014 11:00    30  0.00  0.00   8.6  2.10 13.50    78
  10/24/2014 10:00    29  0.00  0.00   8.6  2.29 13.51    80
  10/24/2014 09:00    28  0.00  0.00   8.7  2.16 13.51    83
  10/24/2014 08:00    28  0.00  0.00   8.7  2.25 13.51    83
  10/24/2014 07:00    28  0.00  0.00   8.7  2.25 13.51    82
  10/24/2014 06:00    28  0.00  0.00   8.6  2.20 13.51    82
  10/24/2014 05:00    28  0.00  0.00   8.6  2.03 13.51    82
  10/24/2014 04:00    27  0.00  0.00   8.7  1.68 13.52    83
  10/24/2014 03:00    27  0.00  0.00   8.9  1.68 13.52    82
  10/24/2014 02:00    27  0.00  0.00   8.9  1.56 13.52    85
  10/24/2014 01:00    27  0.00  0.00   9.0  1.22 13.52    84
  10/23/2014 24:00    26  0.00  0.00   9.1  1.66 13.51    87


CLICK TO VIEW GRAPH!!